[[{"header":{"parameterUnit":"m.s-1","parameterCategory":1,"la1":30.2991,"la2":30.254,"lo1":-89.0895,"lo2":-89.0444,"dy":0.0017,"dx":0.0017,"nx":28,"ny":28,"refTime":"2023-10-14T09:00:00:Z","depth":0,"parameterNumber":2,"parameterNumberName":"U-component_of_WINDS"},"data":[0,0,0,0,0,0,0,0,0,0,0,0,0,0,0,0,0,0,0,0,0,0,0,0,0,0,0,0,0,0,0,0,0,0,0,0,0,0,0,0,0,0,0,0,0,0,0,0,0,0,0,0,0,0,0,0,0,0,3.7158,3.7158,0,3.7164,3.7164,3.7164,3.7141,3.714,3.7139,3.7139,3.7145,3.7146,3.7147,0,0,0,0,0,0,0,0,0,0,0,0,0,3.7129,3.713,3.7158,3.7158,3.7158,3.7164,3.7164,3.7164,3.7141,3.714,3.7139,3.7138,3.7145,3.7146,3.7147,0,0,0,0,0,0,0,0,0,0,0,0,0,3.7139,3.713,3.7158,3.7147,3.7146,3.7164,3.7164,3.7164,3.7141,3.714,3.7139,3.7138,3.7145,3.7146,3.7147,3.7176,0,0,3.7151,3.7151,0,0,0,0,0,0,0,0,3.7138,3.714,3.7149,3.7148,3.7147,3.7151,3.7156,3.7168,3.7141,3.7143,3.7139,3.7137,3.7148,3.7149,3.7152,3.7176,3.7176,3.7151,3.7152,3.7152,3.7153,0,0,0,0,0,0,0,3.7138,3.714,3.716,3.7149,3.7148,3.7143,3.7143,3.7158,3.7151,3.7143,3.7141,3.7142,3.7147,3.7151,3.7152,3.7176,3.7151,3.7152,3.7153,3.7153,3.7227,3.7229,0,0,0,0,0,0,3.7138,3.7139,3.716,3.7161,3.714,3.7144,3.7145,3.715,3.7151,3.715,3.7143,3.7141,3.715,3.7151,3.7152,3.7188,3.7152,3.7154,3.7154,3.7226,3.7228,3.7229,0,0,0,0,0,0,3.7138,3.714,3.716,3.715,3.7152,3.7146,3.7153,3.7151,3.7155,3.7151,3.715,3.7148,3.7149,3.7151,3.7171,3.7188,3.7154,3.7155,3.7225,3.7227,3.7228,3.7259,0,0,0,0,0,0,3.7137,3.714,3.715,3.715,3.7152,3.7178,3.7154,3.7152,3.7157,3.7155,3.7156,3.7155,3.7148,3.7169,3.7172,3.7189,3.7156,3.7223,3.7226,3.7228,3.7256,3.7261,3.7266,0,0,0,0,0,3.7136,3.7158,3.7151,3.7154,3.7165,3.7179,3.718,3.7172,3.7158,3.7169,3.7167,3.7155,3.7185,3.7171,3.7174,3.7192,3.7222,3.7225,3.7228,3.7254,3.726,3.7265,0,0,0,0,0,0,3.716,3.7158,3.715,3.7172,3.7176,3.7175,3.7188,3.7178,3.7186,3.7183,3.7172,3.7173,3.7196,3.7196,3.718,3.7221,3.7202,3.7205,3.7221,3.7227,3.7231,3.7231,3.7157,0,0,0,0,0,3.7168,3.7179,3.7177,3.7197,3.7199,3.7193,3.7199,3.7192,3.7196,3.7197,3.7196,3.7201,3.7212,3.7219,3.7228,3.7256,3.7257,3.727,3.7275,3.7278,3.7282,3.7299,3.7306,3.7238,3.7238,3.7238,0,0,3.7185,3.7185,3.7192,3.7202,3.7204,3.7217,3.7195,3.7208,3.7218,3.7199,3.7219,3.7219,3.7223,3.7248,3.7258,3.7248,3.7301,3.7282,3.7285,3.7286,3.7303,3.7309,3.7315,3.724,3.7239,3.7239,0,0,3.7222,3.7222,3.724,3.7243,3.7247,3.7243,3.7248,3.7248,3.7248,3.7267,3.7254,3.7266,3.7284,3.7289,3.7293,3.7335,3.7325,3.7338,3.7364,3.7381,3.7386,3.7391,3.7408,3.7414,3.7342,3.7342,3.7342,0,3.7242,3.726,3.725,3.7266,3.7272,3.7256,3.7275,3.7278,3.7285,3.729,3.7279,3.7303,3.7304,3.7331,3.7342,3.7345,3.7352,3.7338,3.7386,3.7391,3.7395,3.7411,3.7417,3.7343,3.7343,3.7343,3.7343,0,3.7286,3.7299,3.7313,3.7321,3.7328,3.7345,3.734,3.7348,3.7342,3.734,3.7361,3.7363,3.7374,3.7379,3.7372,3.7406,3.74,3.7388,3.7368,3.7403,3.7418,3.7424,3.7346,3.7345,3.7345,3.7344,0,0,3.7337,3.7341,3.7347,3.7352,3.7356,3.7366,3.7384,3.7395,3.7403,3.7409,3.7425,3.7442,3.7431,3.7436,3.743,3.7445,3.7481,3.743,3.743,3.7441,3.7521,3.7531,3.7538,3.7474,3.7475,3.7475,3.7521,0,3.7375,3.7405,3.7399,3.7429,3.7442,3.7428,3.7444,3.7449,3.7448,3.746,3.7459,3.7472,3.7456,3.7459,3.7473,3.7473,3.7497,3.747,3.749,3.749,3.749,3.7546,3.7556,3.7599,3.7526,3.7527,3.7528,0,3.7423,3.7432,3.7464,3.7468,3.7474,3.7488,3.7499,3.751,3.7516,3.7515,3.7522,3.7514,3.7533,3.7512,3.754,3.7522,3.7529,3.7531,3.7532,3.7535,3.7512,3.7551,3.7612,3.7619,3.7537,3.7536,3.7536,0,3.7461,3.748,3.7502,3.7506,3.7511,3.7522,3.7525,3.753,3.7538,3.7548,3.7553,3.7565,3.7572,3.7582,3.7577,3.7562,3.7607,3.7585,3.7607,3.7608,3.7618,3.7617,3.7682,3.762,3.762,3.762,3.762,0,3.7505,3.7525,3.752,3.7533,3.7557,3.7549,3.7573,3.7574,3.7579,3.7594,3.7582,3.7597,3.7589,3.7604,3.76,3.7625,3.7627,3.7628,3.7627,3.763,3.763,3.7636,3.7633,3.7622,3.7622,3.7621,3.7621,0,3.755,3.7547,3.7571,3.7574,3.7576,3.7593,3.7597,3.761,3.7609,3.7628,3.7633,3.7631,3.7648,3.7644,3.7662,3.766,3.7691,3.7686,3.7689,3.7689,3.7712,3.7711,3.7784,3.7794,3.7724,3.7725,3.7725,0,3.7579,3.7595,3.7601,3.761,3.7614,3.7629,3.7637,3.7631,3.7641,3.765,3.7664,3.7679,3.7691,3.7718,3.7719,3.7734,3.773,3.7754,3.7732,3.7735,3.7732,3.7732,3.7735,3.7759,3.776,3.7761,3.7761,0,3.7632,3.763,3.7643,3.7656,3.7667,3.7676,3.7685,3.7693,3.7688,3.77,3.7717,3.7726,3.7745,3.7762,3.7775,3.7779,3.777,3.7768,3.7775,3.7778,3.778,3.7782,3.7704,3.7767,3.7766,3.7766,3.7765,3.7765,3.7672,3.7686,3.7693,3.7708,3.7714,3.7723,3.7737,3.7739,3.7753,3.7768,3.7763,3.7783,3.7791,3.7809,3.7815,3.7831,3.7822,3.783,3.7833,3.7835,3.7839,3.7777,3.7833,3.7833,3.7833,3.7833,3.7832,0,3.7726,3.773,3.7744,3.7757,3.777,3.776,3.777,3.7781,3.7799,3.7807,3.782,3.7841,3.7857,3.786,3.7876,3.7889,3.7885,3.7893,3.7893,3.7895,3.7845,3.7839,3.7896,3.7896,3.7896,3.7896,3.7896,3.7896,3.7755,3.778,3.7779,3.7808,3.7812,3.7832,3.7838,3.7847,3.7854,3.7878,3.7892,3.7894,3.79,3.7917,3.7932,3.7933,3.794,3.795,3.795,3.7904,3.7898,3.7892,3.7886,3.7951,3.7952,3.7997,3.7998,3.7998]},{"header":{"parameterUnit":"m.s-1","parameterCategory":1,"la1":30.2991,"la2":30.254,"lo1":-89.0895,"lo2":-89.0444,"dy":0.0017,"dx":0.0017,"nx":28,"ny":28,"refTime":"2023-10-14T09:00:00:Z","depth":0,"parameterNumber":3,"parameterNumberName":"V-component_of_WINDS"},"data":[0,0,0,0,0,0,0,0,0,0,0,0,0,0,0,0,0,0,0,0,0,0,0,0,0,0,0,0,0,0,0,0,0,0,0,0,0,0,0,0,0,0,0,0,0,0,0,0,0,0,0,0,0,0,0,0,0,0,-0.7951,-0.795,0,-0.7872,-0.7871,-0.787,-0.788,-0.7882,-0.7883,-0.7884,-0.7803,-0.78,-0.7797,0,0,0,0,0,0,0,0,0,0,0,0,0,-0.8111,-0.8108,-0.7951,-0.795,-0.7949,-0.7872,-0.7871,-0.787,-0.788,-0.7882,-0.7883,-0.7885,-0.7804,-0.78,-0.7796,0,0,0,0,0,0,0,0,0,0,0,0,0,-0.8038,-0.8107,-0.7951,-0.7945,-0.7943,-0.7873,-0.7871,-0.787,-0.788,-0.7882,-0.7884,-0.7885,-0.7806,-0.7801,-0.7796,-0.7726,0,0,-0.778,-0.7778,0,0,0,0,0,0,0,0,-0.8042,-0.8032,-0.7946,-0.7945,-0.7943,-0.7888,-0.7898,-0.7822,-0.7879,-0.7904,-0.7884,-0.7886,-0.783,-0.7823,-0.7804,-0.7723,-0.7719,-0.778,-0.7777,-0.7775,-0.7773,0,0,0,0,0,0,0,-0.8047,-0.8035,-0.792,-0.7945,-0.7943,-0.7946,-0.7938,-0.7884,-0.7857,-0.7902,-0.7902,-0.7893,-0.7829,-0.7809,-0.7802,-0.7718,-0.778,-0.7776,-0.7773,-0.7771,-0.758,-0.7578,0,0,0,0,0,0,-0.8054,-0.804,-0.7922,-0.7917,-0.7998,-0.7942,-0.7933,-0.7904,-0.7858,-0.7852,-0.7891,-0.7894,-0.7816,-0.7808,-0.7799,-0.7718,-0.7775,-0.777,-0.7767,-0.7582,-0.758,-0.7577,0,0,0,0,0,0,-0.8057,-0.8043,-0.7925,-0.7979,-0.7964,-0.7937,-0.7905,-0.7901,-0.7881,-0.785,-0.7845,-0.7875,-0.7818,-0.7806,-0.7745,-0.7715,-0.7768,-0.7763,-0.7584,-0.7581,-0.7578,-0.7553,0,0,0,0,0,0,-0.8062,-0.8044,-0.8017,-0.7978,-0.7961,-0.7872,-0.7903,-0.7898,-0.7872,-0.7874,-0.7833,-0.7828,-0.7818,-0.7753,-0.774,-0.7709,-0.7759,-0.7587,-0.7583,-0.7579,-0.7556,-0.7549,-0.7543,0,0,0,0,0,-0.8067,-0.8012,-0.8015,-0.8001,-0.7926,-0.787,-0.786,-0.785,-0.787,-0.7843,-0.7823,-0.783,-0.772,-0.7747,-0.7733,-0.7699,-0.7589,-0.7584,-0.758,-0.7559,-0.755,-0.7543,0,0,0,0,0,0,-0.8046,-0.8006,-0.801,-0.794,-0.7909,-0.7872,-0.7837,-0.7841,-0.7803,-0.7806,-0.7795,-0.7786,-0.7725,-0.7706,-0.7736,-0.7632,-0.7657,-0.765,-0.7647,-0.7638,-0.7632,-0.7638,-0.7755,0,0,0,0,0,-0.8034,-0.7991,-0.7959,-0.79,-0.7884,-0.7864,-0.7839,-0.7834,-0.7801,-0.7787,-0.7763,-0.7731,-0.769,-0.7663,-0.7623,-0.7554,-0.7546,-0.7524,-0.7518,-0.7512,-0.7506,-0.7472,-0.7462,-0.7562,-0.7562,-0.7562,0,0,-0.8007,-0.798,-0.7953,-0.7895,-0.787,-0.7828,-0.7852,-0.7805,-0.7774,-0.778,-0.7722,-0.7703,-0.7667,-0.7603,-0.7573,-0.7585,-0.7477,-0.7507,-0.7503,-0.7499,-0.7466,-0.7457,-0.7448,-0.7559,-0.756,-0.756,0,0,-0.7937,-0.7911,-0.7861,-0.7837,-0.7799,-0.7786,-0.7775,-0.7738,-0.7727,-0.7668,-0.7673,-0.7636,-0.7564,-0.7539,-0.7517,-0.7442,-0.7447,-0.7429,-0.7395,-0.7362,-0.7354,-0.7347,-0.7323,-0.7314,-0.7423,-0.7423,-0.7423,0,-0.7908,-0.7844,-0.7835,-0.7789,-0.7764,-0.7769,-0.772,-0.7696,-0.7647,-0.7631,-0.7645,-0.7558,-0.7533,-0.7465,-0.7447,-0.7428,-0.7416,-0.7434,-0.7356,-0.7349,-0.7342,-0.7319,-0.7309,-0.7421,-0.7421,-0.7421,-0.7421,0,-0.7812,-0.7768,-0.7732,-0.7687,-0.7658,-0.761,-0.7596,-0.7568,-0.7566,-0.7553,-0.7495,-0.7466,-0.7422,-0.7406,-0.7402,-0.7338,-0.7347,-0.7358,-0.7384,-0.7331,-0.7309,-0.73,-0.7418,-0.7419,-0.7419,-0.742,0,0,-0.7725,-0.7678,-0.7665,-0.7646,-0.7607,-0.7573,-0.7527,-0.7485,-0.7463,-0.7429,-0.7392,-0.7333,-0.7345,-0.732,-0.7314,-0.7285,-0.7231,-0.7301,-0.73,-0.7291,-0.7161,-0.7154,-0.7143,-0.7234,-0.7233,-0.7231,-0.7165,0,-0.7653,-0.7571,-0.7564,-0.7491,-0.7452,-0.7457,-0.7418,-0.739,-0.7377,-0.7342,-0.7327,-0.7287,-0.7304,-0.729,-0.726,-0.7244,-0.7205,-0.7248,-0.7201,-0.7199,-0.7211,-0.7131,-0.7123,-0.7061,-0.7156,-0.7155,-0.7154,0,-0.7557,-0.7524,-0.7448,-0.7418,-0.7401,-0.7365,-0.7328,-0.7294,-0.7264,-0.7257,-0.7231,-0.723,-0.7185,-0.7212,-0.715,-0.718,-0.716,-0.7149,-0.7147,-0.7143,-0.7174,-0.7127,-0.7041,-0.7033,-0.7139,-0.7141,-0.7142,0,-0.7505,-0.744,-0.7387,-0.7371,-0.7333,-0.7309,-0.7292,-0.7264,-0.724,-0.7208,-0.7193,-0.7155,-0.7135,-0.7107,-0.7097,-0.7117,-0.7037,-0.7062,-0.7031,-0.7031,-0.7014,-0.7015,-0.6926,-0.6999,-0.6999,-0.6999,-0.6999,0,-0.7426,-0.738,-0.7364,-0.7331,-0.7281,-0.7273,-0.7223,-0.7208,-0.7183,-0.7149,-0.7151,-0.7119,-0.7108,-0.7075,-0.7067,-0.7019,-0.7009,-0.7003,-0.7002,-0.7003,-0.7005,-0.6991,-0.6996,-0.6997,-0.6997,-0.6998,-0.6998,0,-0.7359,-0.7346,-0.7289,-0.7259,-0.7251,-0.7215,-0.719,-0.716,-0.7148,-0.7105,-0.7095,-0.7076,-0.7037,-0.7025,-0.6977,-0.6973,-0.6917,-0.6918,-0.6927,-0.6928,-0.6898,-0.6902,-0.6797,-0.6784,-0.6864,-0.6864,-0.6863,0,-0.731,-0.7275,-0.7242,-0.722,-0.7203,-0.7166,-0.7143,-0.7135,-0.7111,-0.7076,-0.7051,-0.7013,-0.6982,-0.692,-0.6903,-0.6867,-0.6869,-0.6835,-0.6864,-0.6868,-0.6872,-0.6875,-0.6872,-0.683,-0.6829,-0.6829,-0.6828,0,-0.7226,-0.7222,-0.7188,-0.7154,-0.7126,-0.7098,-0.7071,-0.7053,-0.7041,-0.7014,-0.6975,-0.6951,-0.6905,-0.6868,-0.6833,-0.6816,-0.6821,-0.6819,-0.6811,-0.6813,-0.6821,-0.6819,-0.6915,-0.6822,-0.6822,-0.6823,-0.6823,-0.6824,-0.7168,-0.7138,-0.7112,-0.7075,-0.7055,-0.703,-0.7001,-0.6987,-0.6954,-0.6916,-0.6913,-0.6872,-0.6846,-0.68,-0.6782,-0.6751,-0.676,-0.6747,-0.6744,-0.6741,-0.674,-0.6825,-0.6744,-0.6744,-0.6744,-0.6744,-0.6744,0,-0.7086,-0.707,-0.7036,-0.7,-0.6972,-0.6979,-0.695,-0.6927,-0.6891,-0.6866,-0.6837,-0.6794,-0.6759,-0.674,-0.6705,-0.6684,-0.6686,-0.6676,-0.6678,-0.6675,-0.6732,-0.6744,-0.6675,-0.6675,-0.6675,-0.6675,-0.6675,-0.6675,-0.704,-0.6992,-0.6985,-0.6928,-0.6912,-0.6872,-0.6855,-0.6834,-0.6815,-0.6767,-0.6738,-0.6726,-0.6705,-0.667,-0.6639,-0.6635,-0.6623,-0.6612,-0.6609,-0.6663,-0.667,-0.6677,-0.6688,-0.6609,-0.6609,-0.6554,-0.6554,-0.6553]}]]